Weather History for Aberdeen, SD

Change the Weather History Date:

Saturday, May 25, 2013

  Actual Average Record
Temperature  
Mean Temperature 62 °F 59 °F  
Max Temperature 74 °F 71 °F 93 °F (1941)
Min Temperature 49 °F 47 °F 29 °F (1924)
Degree Days  
Heating Degree Days 3 7  
Month to date heating degree days 271 251  
Since 1 July heating degree days 8976 8422  
Cooling Degree Days 0 1  
Month to date cooling degree days 17 15  
Year to date cooling degree days 17 17  
Growing Degree Days 10 (Base 50)    
Moisture  
Dew Point 52 °F    
Average Humidity 73    
Maximum Humidity 89    
Minimum Humidity 57    
Precipitation  
Precipitation 0.00 in 0.09 in 3.70 in (1906)
Month to date precipitation 3.25 2.53  
Year to date precipitation 7.45 6.56  
Sea Level Pressure  
Sea Level Pressure 30.03 in    
Wind  
Wind Speed 12 mph (ESE)    
Max Wind Speed 23 mph    
Max Gust Speed 31 mph    
Visibility 10 miles    
Events      
T = Trace of Precipitation, MM = Missing Value Source: NWS Daily Summary

Daily Weather History Graph

Daily Weather History Graph

Search for Another Location

Airport:

Trip Planner

Search our weather history database for the weather conditions in past years. The results will help you decide how hot, cold, wet, or windy it might be!

Date:

Astronomy

May. 25, 2013 Rise Set
Actual Time 5:53 AM CDT 9:08 PM CDT
Civil Twilight 5:17 AM CDT 9:44 PM CDT
Nautical Twilight 4:30 AM CDT 10:31 PM CDT
Astronomical Twilight 3:32 AM CDT 11:30 PM CDT
Moon 9:57 PM CDT (5/25) 6:22 AM CDT (5/25)
Length of Visible Light 16h 27m
Length of Day
15h 15m
Full, 100% of the Moon is Illuminated
May 25
Full
May 31
Last Quarter
Jun 8
New
Jun 16
First Quarter
Jun 23
Full

Hourly Weather History & Observations

Time (CDT) Temp. Dew Point Humidity Pressure Visibility Wind Dir Wind Speed Gust Speed Precip Events Conditions
12:53 AM 57.9 °F 50.0 °F 75% 30.03 in 10.0 mi SE 8.1 mph - N/A   Mostly Cloudy
1:53 AM 55.0 °F 48.9 °F 80% 30.01 in 10.0 mi Calm Calm - N/A   Clear
2:53 AM 52.0 °F 48.0 °F 86% 30.01 in 10.0 mi NE 5.8 mph - N/A   Clear
3:53 AM 50.0 °F 46.9 °F 89% 30.01 in 10.0 mi ENE 5.8 mph - N/A   Clear
4:53 AM 50.0 °F 46.9 °F 89% 30.03 in 10.0 mi East 3.5 mph - N/A   Clear
5:53 AM 50.0 °F 46.0 °F 86% 30.02 in 10.0 mi East 3.5 mph - N/A   Clear
6:53 AM 51.1 °F 48.0 °F 89% 30.02 in 10.0 mi NNE 5.8 mph - N/A   Clear
7:53 AM 54.0 °F 50.0 °F 86% 30.03 in 10.0 mi NNE 5.8 mph - N/A   Clear
8:53 AM 61.0 °F 52.0 °F 72% 30.04 in 10.0 mi East 8.1 mph - N/A   Clear
9:53 AM 64.0 °F 53.1 °F 67% 30.04 in 10.0 mi ESE 11.5 mph - N/A   Clear
10:53 AM 66.9 °F 54.0 °F 63% 30.04 in 10.0 mi SE 10.4 mph - N/A   Partly Cloudy
11:53 AM 70.0 °F 55.9 °F 61% 30.03 in 10.0 mi ESE 13.8 mph - N/A   Clear
12:53 PM 72.0 °F 57.9 °F 61% 30.02 in 10.0 mi SE 11.5 mph - N/A   Clear
1:53 PM 73.0 °F 57.9 °F 59% 30.01 in 10.0 mi SE 12.7 mph 23.0 mph N/A   Partly Cloudy
2:53 PM 72.0 °F 57.9 °F 61% 30.00 in 10.0 mi SE 15.0 mph 25.3 mph N/A   Clear
3:53 PM 73.0 °F 57.9 °F 59% 29.99 in 10.0 mi ESE 18.4 mph 24.2 mph N/A   Clear
4:53 PM 71.1 °F 57.0 °F 61% 30.00 in 10.0 mi ESE 19.6 mph 26.5 mph N/A   Clear
5:53 PM 68.0 °F 55.0 °F 63% 30.01 in 10.0 mi ESE 18.4 mph 25.3 mph N/A   Clear
6:53 PM 63.0 °F 54.0 °F 72% 30.02 in 10.0 mi ESE 18.4 mph 27.6 mph N/A   Clear
7:46 PM 57.2 °F 51.8 °F 82% 30.03 in 10.0 mi ESE 18.4 mph 29.9 mph N/A   Mostly Cloudy
7:53 PM 57.9 °F 52.0 °F 81% 30.04 in 10.0 mi ESE 21.9 mph 26.5 mph N/A   Mostly Cloudy
8:15 PM 57.2 °F 51.8 °F 82% 30.03 in 10.0 mi ESE 16.1 mph 26.5 mph N/A   Scattered Clouds
8:53 PM 57.0 °F 52.0 °F 83% 30.03 in 10.0 mi ESE 18.4 mph 23.0 mph N/A   Scattered Clouds
9:03 PM 57.2 °F 51.8 °F 82% 30.03 in 10.0 mi ESE 18.4 mph 24.2 mph N/A   Mostly Cloudy
9:53 PM 55.9 °F 52.0 °F 87% 30.02 in 10.0 mi East 12.7 mph 26.5 mph N/A   Overcast
10:30 PM 55.4 °F 51.8 °F 88% 30.04 in 10.0 mi East 15.0 mph 25.3 mph N/A   Overcast
10:53 PM 55.0 °F 51.1 °F 86% 30.06 in 10.0 mi ESE 11.5 mph - N/A   Overcast
11:53 PM 54.0 °F 50.0 °F 86% 30.07 in 10.0 mi ESE 13.8 mph - N/A   Overcast